THOR ABLESTAR DEB, 244

Orbit data source: Space-Track

THOR ABLESTAR DEB, 244 is space debris in LEO originally from a launch on Thu, 29 Jun 1961 UTC launched from the Air Force Eastern Test Range (AFETR). Debris objects in space refer to the collection of defunct objects orbiting the Earth. Examples of debris include non-operational satellites, rocket bodies, and fragments generated from explosions, collisions, or faulty payload assembly.

Loading next visibility...
Identifier
244, 1961-015BZ
Orbit
LEO
Country
Flag of USUS
Related business
Manufacturer
Unknown
Mission
Spacecraft
Bus & Motor
Unknown
Mass
Unknown
Launch date (UTC)
1961-06-29 (65 years ago)
Launch vehicle
Unknown
Launch site
Air Force Eastern Test Range (AFETR)
Object type
Payload
Rocket body
Debris
Shape & HBR
Unknown shape, 0.2 m
Radar Cross Section
Small (<0.1 m²)

Expand to show TLE details & history
Last TLE update: 12 hours ago

TLE from 12 hours ago
0 THOR ABLESTAR DEB
1 00244U 61015BZ  26073.79275815  .00000144  00000-0  15965-3 0  9993
2 00244  66.8391 101.4356 0065768 156.1615 204.2537 13.95707398285967
Epoch: 2026-03-14T19:01Z
TLE epoch observation values (Epoch: 2026-03-14T19:01:34.304Z)
Latitude
-0.00001°
Longitude
3.63381°
Altitude
954.534 km
Speed
7.353 km/s
True Right ascension
06h 45m 44s
True Declination
0° 00' 00"
Sunlit
Object was in daylight at epoch
Visualization orbit readout
Latitude
Unknown
Longitude
Unknown
Altitude
Unknown
Speed
Unknown
Apparent Right ascension
Unknown
Apparent Declination
Unknown
Sunlit
N/A
Visualization observer readout
Local Sidereal Time
11:58:47
Azimuth
Unknown
Elevation
Unknown
Doppler factor
Unknown
Orbital elements
Apogee altitude
954.996 km
Perigee altitude
859.169 km
Semi-major axis
7,285.22 km
Eccentricity
0.00658
Inclination
66.8391°
RAAN
101.4356°
Arg. of periapsis
156.1615°
True anomaly
203.94642°
Mean anomaly
204.2537°
Eccentric anomaly
204.09983°
Mean motion
3.49043 °/min
Orbital period
103.14 mins
BSTAR
0.00015965

Documentation

Showing up to 5 results
|